Airfield :
LOGIN :

Register | Disclaimer

   EN    FR    IT 

 










Legend :    VFR   Marginal VFR   IFR   Intensive IFR   Very Intensive IFR
Visi :
Ceiling :
>= 8 km
>= 3000ft
5 to 8 km
1000 to 3000 ft
1500m to 5 km
500 to 1000 ft
800 to 1500m
200 to 500 ft
< 800m
< 200 ft
Symbols :   Thunderstorms  Fog  Heavy snow  Heavy precipitations  Wind > 20 kt
SIGMETs :     Misc.  Thunderstorms  Icing  Turbulence  Mountain Waves  Volcanic Ashes







- Airport Elevation : 25 ft
- IATA code : TPS


LICT - Vincenzo Florio Trapani

CURRENT METAR :
  • 152155Z 10002KT 9999 SCT025 FEW030CB 24/22 Q1012

EXPIRED METARs :
  • 152055Z 01003KT 9999 FEW025 FEW030CB 25/22 Q1012
  • 151955Z 32008KT 9999 SCT025 FEW028CB 27/23 Q1012

TAF TAF LICT
Valid from the 15 at 21:00 until the 16 at 06:00 UTC


152000Z 1521/1606 30008KT 9999 SCT025
PROB40
TEMPO 1521/1522 TSRA FEW020CB
TEMPO 1601/1606 TSRA FEW015CB
No reported NOTAMs for that airfield.



MET'MAP, your aeronautical weather chart ! - Copyright ORBIFLY December 2007 - Disclaimer

ORBIFLY MET'MAP TEAM :

Programming & Development : Alexandra Zaïnal
Concept & Development : Baudouin d'Aumeries
Co-Development & Prog : Marc-Olivier Méhu
Technical & hardware support : Manuel Goepfert

Contact : metmap@orbifly.com




SOURCES & CREDITS :

   NOAA